Voltar ao catálogo

ONEWEB-0701

AtivoComunicaçõesPO
NORAD 61607·PAYLOAD·🇬🇧 United Kingdom

Lançado Oct 20, 2024 de Vandenberg Space Force Base

Loading…

Próximas Passagens (próximas 24 horas)

TLE

AtualizadoSource: CelesTrak SupGP

Época: Sep 14, 2026, 19:47 UTC

1 61607C 24188P   26257.82446019  .00001999  00000+0  57327-2 0  2579
2 61607  87.8903  18.4214 0001228  80.3405  29.1562 13.10370801    10

Acompanhe ONEWEB-0701 em tempo real com AllMySat

Download on the App Store